www.pogodaiklimat.ru

Погода и климат >> Архив погоды >> Пакистан >> Рохри


ПОГОДА в Рохри

  • Прогноз погоды в Рохри
  • Монитор погоды в Рохри

АРХИВ ПОГОДЫ в Рохри

Время (UTC), дата Ветер
(напр.,м/с)
 
Видим.   Явления Облачность Т
(С)
Тd
(С)
f
(%)
Тe
(С)
Тes
(С)
Комфортность P
(гПа)
Po
(гПа)
Тmin
(С)
Tmax
(С)
R
(мм)
R24
(мм)
S
(см)
12 11.06 ЮВ 1 4000 м ясно +43.5 +25.0 36 +56 +62 опасность
перегрева
992.0 984.8 +45.1
15 11.06 ЮВ 1 4000 м ясно +40.0 +21.3 34 +47 +47 опасность
перегрева
993.7 1000.0
18 11.06 ЮВ 2 4000 м ясно +36.0 +19.7 39 +42 +42 опасность
перегрева
995.0 987.5
21 11.06 штиль 0 4000 м ясно +33.0 +18.5 42 +38 +38 очень
душно
994.6 1000.0
00 12.06 штиль 0 4000 м ясно +31.0 +14.8 37 +33 +33 душно 994.6 987.1
03 12.06 штиль 0 4000 м ясно +32.5 +21.5 52 +40 +48 очень
душно
995.8 988.3
06 12.06 СЗ 1 4000 м 5/0
[Ac trans]
+39.0 +19.9 33 +44 +61 опасность
перегрева
995.8 988.4
09 12.06 СВ 1 4000 м 5/0
[Ac trans]
+42.0 +22.1 32 +49 +66 опасность
перегрева
995.7 1000.0
12 12.06 СВ 2 4000 м 5/0
[Ac trans]
+42.0 +18.1 25 +45 +49 опасность
перегрева
994.0 986.8 +43.0
15 12.06 СВ 1 4000 м ясно +38.0 +20.4 36 +44 +44 опасность
перегрева
995.5 1000.0
18 12.06 СВ 1 4000 м ясно +35.0 +16.3 33 +38 +38 очень
душно
996.7 1000.0
21 12.06 штиль 0 4000 м ясно +32.0 +15.2 36 +34 +34 душно 996.3 988.7
00 13.06 штиль 0 4000 м ясно +30.0 +13.4 36 +31 +31 жарко 995.9 988.3
03 13.06 СВ 1 4000 м 4/0
[Ac trans]
+34.0 +20.8 46 +41 +47 опасность
перегрева
999.5 992.1
06 13.06 ЮЗ 1 4000 м 4/0
[Ac trans]
+39.0 +23.5 41 +49 +68 опасность
перегрева
1000.5 1000.0
09 13.06 СВ 1 4000 м 4/0
[Ac trans]
+41.0 +20.4 31 +47 +65 опасность
перегрева
998.9 1000.0
12 13.06 СВ 1 4000 м 4/0
[Ac trans]
+41.0 +20.4 31 +47 +52 опасность
перегрева
996.9 989.6 +42.1
15 13.06 С 2 4000 м 1/0
[]
+40.0 +19.3 30 +44 +44 опасность
перегрева
997.7 990.3
18 13.06 ЮВ 1 4000 м ясно +36.0 +18.7 36 +40 +40 очень
душно
998.5 991.0
21 13.06 штиль 0 4000 м ясно +33.0 +17.6 40 +37 +37 очень
душно
998.3 1000.0
00 14.06 штиль 0 4000 м ясно +31.0 +14.8 37 +33 +33 душно 998.3 990.8
03 14.06 Ю 1 4000 м 4/0
[]
+34.0 +22.5 51 +43 +49 опасность
перегрева
1000.1 992.7
06 14.06 Ю 1 4000 м 4/0
[]
+38.0 +22.3 41 +47 +67 опасность
перегрева
1000.4 1000.0
09 14.06 Ю 1 4000 м ясно +41.5 +20.5 30 +47 +71 опасность
перегрева
999.0 1000.0
12 14.06 ЮЗ 2 10 км ясно +42.0 +22.1 32 +49 +54 опасность
перегрева
996.2 989.0 +42.5
15 14.06 штиль 0 4000 м ясно +39.5 +24.2 42 +51 +51 опасность
перегрева
995.9 1000.0
18 14.06 штиль 0 4000 м ясно +37.0 +23.6 46 +47 +47 опасность
перегрева
997.5 990.1
21 14.06 штиль 0 4000 м ясно +35.5 +21.7 45 +44 +44 опасность
перегрева
997.0 989.5
00 15.06 штиль 0 4000 м ясно +33.0 +19.5 45 +39 +39 очень
душно
996.9 989.4
03 15.06 С 1 4000 м мгла 1/0
[]
+33.5 +23.5 56 +44 +51 опасность
перегрева
999.6 992.2
06 15.06 ЮЗ 1 10 км ясно +38.0 +22.3 41 +47 +70 опасность
перегрева
999.7 1000.0
09 15.06 ЮЗ 1 10 км ясно +40.0 +23.1 38 +49 +71 опасность
перегрева
997.2 1000.0
12 15.06 ЮЗ 2 10 км ясно +41.5 +21.4 32 +48 +54 опасность
перегрева
995.1 987.9 +42.1
15 15.06 ЮЗ 2 4000 м ясно +38.0 +24.0 45 +49 +49 опасность
перегрева
995.1 987.7
18 15.06 ЮЗ 2 4000 м мгла ясно +36.0 +23.2 48 +46 +46 опасность
перегрева
989.7 1000.0
21 15.06 ЮЗ 2 4000 м мгла ясно +34.5 +21.4 47 +42 +42 опасность
перегрева
996.4 1000.0
00 16.06 ЮЗ 3 4000 м мгла ясно +33.5 +21.9 51 +42 +42 опасность
перегрева
996.8 989.4
03 16.06 С 3 4000 м мгла 1/0
[]
+31.5 +22.9 60 +41 +46 опасность
перегрева
999.0 991.6
06 16.06 ЮЗ 1 4000 м мгла ясно +36.5 +23.8 48 +47 +71 опасность
перегрева
1000.2 1000.0
09 16.06 Ю 2 10 км ясно +39.0 +23.5 41 +49 +68 опасность
перегрева
998.5 1000.0
12 16.06 ЮЗ 2 10 км ясно +40.0 +23.1 38 +49 +54 опасность
перегрева
996.6 989.4 +41.0
15 16.06 Ю 2 4000 м мгла ясно +37.0 +24.4 49 +49 +49 опасность
перегрева
996.7 989.3
18 16.06 ЮЗ 1 4000 м мгла ясно +34.5 +24.7 57 +48 +48 опасность
перегрева
998.7 1000.0
21 16.06 ЮЗ 2 4000 м мгла ясно +33.5 +23.5 56 +44 +44 опасность
перегрева
998.0 990.5
00 17.06 ЮЗ 2 4000 м мгла ясно +32.5 +24.0 61 +44 +44 опасность
перегрева
998.3 990.9
03 17.06 ЮЗ 2 4000 м мгла ясно +31.0 +23.9 66 +43 +49 опасность
перегрева
999.3 991.9
06 17.06 Ю 2 4000 м мгла ясно +35.5 +22.6 47 +45 +66 опасность
перегрева
1000.1 1000.0
09 17.06 ЮЗ 2 10 км ясно +38.0 +24.0 45 +49 +70 опасность
перегрева
997.9 1000.0
12 17.06 ЮЗ 1 10 км ясно +39.5 +24.2 42 +51 +57 опасность
перегрева
995.2 988.0 +40.1
15 17.06 ЮВ 3 4000 м мгла ясно +37.0 +22.8 44 +46 +46 опасность
перегрева
994.5 987.1
18 17.06 Ю 3 4000 м мгла ясно +34.0 +24.1 56 +46 +46 опасность
перегрева
997.1 1000.0
21 17.06 Ю 2 4000 м мгла ясно +32.5 +24.0 61 +44 +44 опасность
перегрева
996.6 1000.0
00 18.06 ЮВ 2 4000 м мгла ясно +31.5 +24.4 66 +44 +44 опасность
перегрева
997.0 989.6
03 18.06 ЮВ 1 4000 м мгла ясно +30.5 +24.9 72 +44 +50 опасность
перегрева
997.7 990.2
06 18.06 ЮЗ 1 4000 м мгла 4/0
[Ac trans]
+34.5 +23.1 52 +45 +62 опасность
перегрева
997.0 1000.0
09 18.06 ЮВ 1 4000 м ясно +38.5 +22.9 41 +48 +70 опасность
перегрева
995.8 1000.0

 

Местоположение метеостанции Рохри (Пакистан): широта 27.67 долгота 68.90 высота над уровнем моря 68 м.

В архиве по умолчанию представлена погода в Рохри за последнюю неделю. Архивные данные за месяц целиком и за предыдущие месяцы, начиная с января 2011 года, Вы можете получить, выбрав интересующий диапазон дат из раскрывающегося списка и нажав кнопку "Ввод!".


*Определитесь, кто Вы:
робот инопланетянин человек

Внимание! Время в таблицах - всемирное. Для получения местного времени необходимо прибавить поправку, которая равна 5 ч.

Смотрите также архив погоды в соседних городах и на ближайших метеорологических станциях:

Погода в Суккуре (Пакистан) (14 км)
Погода в Ларкане (Пакистан) (73 км)
Погода в Джейкобабаде (Пакистан) (82 км)
Погода в Мохенджо-Даро (Пакистан) (85 км)
Погода в Пад Идан (Пакистан) (119 км)
Погода в Рахим Яр Хан (Пакистан) (163 км)
Погода в Навабшахе (Пакистан) (166 км)
Погода в Ханпуре (Пакистан) (206 км)
Погода в Джайсалмере (Раджастхан, Индия) (217 км)
Погода в Хуздаре (Пакистан) (224 км)

Пояснения к столбцам:

Ветер - указаны скорость ветра в м/с - средняя за 10 мин, порывы в срок и между сроками (в фигурных скобках) и направление, откуда дует ветер: С - северный, СВ - северо-восточный, В - восточный, ЮВ - юго-восточный, Ю - южный, ЮЗ - юго-западный, З - западный, СЗ - северо-западный.
Видимость - горизонтальная дальность видимости в метрах или километрах. При видимости от 1 до 10 км при отсутствии осадков обычно наблюдается дымка, при ухудшении видимости до 1 км и менее - туман. В сухую погоду видимость может ухудшаться дымом, пылью или мглою.
Явления - указаны атмосферные явления, наблюдавшиеся в срок или в последний час перед сроком; фигурными скобками обозначены явления, наблюдавшиеся между сроками (за 1-3 часа до срока); квадратными скобками обозначены град или гололедные отложения с указанием их диаметра в мм.
Облачность - указаны через наклонную черту общая и нижняя облачность в баллах и высота нижней границы облаков в метрах; квадратными скобками обозначены формы облаков: Ci - перистые, Cs - перисто-слоистые, Cc - перисто-кучевые, Ac - высококучевые, As - высокослоистые, Sc - слоисто-кучевые, Ns - слоисто-дождевые, Cu - кучевые, Cb - кучево-дождевые. Подробнее классификацию облаков см. в Атласе облаков (PDF).
T - Температура воздуха - температура, измеренная на высоте 2 м над землей.
Td - Температура точки росы - температура, при понижении до которой содержащийся в воздухе водяной пар достигнет насыщения.
f - Относительная влажность воздуха - влажноcть воздуха, измеренная на высоте 2 м над землей.
Te - Эффективная температура - температура, которую ощущает одетый по сезону человек в тени. Характеристика душности погоды. При расчете учитывается влияние влажности воздуха и скорости ветра на теплоощущения человека.
Tes - Эффективная температура на солнце - температура, которую ощущает человек, с поправкой на солнечный нагрев. Характеристика знойности погоды. Зависит от высоты солнца над горизонтом, облачности и скорости ветра. Ночью, в пасмурную погоду, а также при ветре 12 м/с и более поправка равна нулю.
P - Атмосферное давление - приведенное к уровню моря атмосферное давление.
Po - Атмосферное давление - измеренное на уровне метеостанции атмосферное давление.
Tmin - Минимальная температура - минимум температуры воздуха на высоте 2 м над землей.
Tmax - Максимальная температура - максимум температуры воздуха на высоте 2 м над землей.
R - Количество осадков - Количество выпавших осадков за период времени, мм. При наведении курсора мыши на число - период времени, за который выпало указанное количество осадков.
R24 - Количество осадков - Количество выпавших осадков за 24 часа, мм.
S - Снежный покров - Высота снежного покрова, см. При наведении курсора мыши на число - состояние снежного покрова и степень покрытия местности в баллах.